McGowan Invitational 2017 vs McGowan Invitational 2014

Aggregate Data Points
Difference This Meet That Meet
Overall Athletes +334 2455 2121
Overall Average -40.91 22:20.16 23:01.07
1st-10th Place -31.37 15:44.45 16:15.82
1st-25th Place -28.37 16:05.57 16:33.94
1st-50th Place -24.95 16:22.44 16:47.39
1st-100th Place -23.14 16:43.78 17:06.92
Common Athletes -- -- 195
Ran Faster 116 156 40
Ran Season Best 40 54 14
Average Time -1:16.59 21:16.37 22:32.96
Median Time -1:22.03 20:25.60 21:47.63
Middle 80% Times -1:18.33 20:57.56 22:15.89
Top 10% Times -1:51.15 16:17.64 18:08.79
Top 25% Times -1:48.63 17:02.48 18:51.12
Top 50% Times -1:41.44 18:12.97 19:54.41
Bottom 50% Times -50.95 24:06.75 24:57.70
Bottom 25% Times -44.35 26:35.15 27:19.50
Bottom 10% Times -28.99 28:56.48 29:25.47
Average Difference -1:16.50 -- --
Median Difference -2:07.03 -- --
Middle 80% Difference -1:21.84 -- --
Top 10% Difference -1:21.85 -- --
Top 50% Difference -1:30.50 -- --
Top 25% Difference -1:32.07 -- --
Top 50% Difference -1:30.50 -- --
Bottom 50% Difference -1:02.50 -- --
Bottom 25% Difference -59.97 -- --
Bottom 10% Difference -29.53 -- --

Performances of Common Athletes
Athlete Team Difference This Meet That Meet
Matt Scrape Pickerington Central -2:21.54 15:12.70 17:34.24
Andy Payne Thomas Worthington -1:44.03 15:24.10 17:08.13
Cesar Arellano Dublin Scioto -1:07.64 15:35.10 16:42.74
Kiefer Mosmeier Logan Elm -3:27.70 15:57.70 19:25.40
Luke Brown Sheridan -1:37.09 16:03.70 17:40.79
Peter Buckley Athens -2:08.52 16:15.00 18:23.52
Logan Boone Olentangy Liberty -1:54.44 16:15.30 18:09.74
Evan Whitaker Grove City -2:48.01 16:16.80 19:04.81
Chandler Wilhelm Heath -2:50.39 16:18.40 19:08.79
Nick Lee Heath -2:22.36 16:19.40 18:41.76
David Drushal Lakewood-Hebron -2:50.55 16:21.30 19:11.85
Nicholas Anderson Olentangy Liberty -2:06.03 16:22.00 18:28.03
Tyler Mielke Dublin Scioto -1:49.76 16:22.60 18:12.36
Dylan Curtis John Glenn -1:17.01 16:41.60 17:58.61
Rob Mccabe Hilliard Bradley -1:03.01 16:42.20 17:45.21
Dylan Newport Hilliard Darby -2:25.91 16:43.60 19:09.51
Nick Watson Columbus Academy -4:44.04 16:44.60 21:28.64
Will Metcalf-shull Lancaster -2:08.19 16:44.80 18:52.99
Bradley Raymond Olentangy Liberty -4:18.52 16:45.30 21:03.82
Kane Breuer New Albany -3:50.80 16:46.50 20:37.30
Kyle Clellan Sheridan -1:21.36 16:49.30 18:10.66
Bruce Davisson Newark -2:18.21 16:56.00 19:14.21
Isaiah West Unioto -2:07.46 16:57.20 19:04.66
Kenton Colvin St. Charles -1:53.80 17:03.60 18:57.40
Andrew Snodgrass Marysville -2:22.69 17:06.10 19:28.79
Cullen Sainey Olentangy -1:37.44 17:08.20 18:45.64
Hunter Probert Indian Valley -1:09.14 17:11.80 18:20.94
Ian Dye Marysville -3:25.67 17:12.10 20:37.77
Brook Taylor Liberty Union -1:28.01 17:12.10 18:40.11
Beau Boyden Fisher Catholic -1:36.95 17:13.40 18:50.35
Sam Wehr Barnesville -4:50.13 17:20.30 22:10.43
Zach Kirk Teays Valley -2:40.44 17:21.60 20:02.04
Colin Wagner Hilliard Darby -1:27.89 17:24.70 18:52.59
William Koberna Olentangy Liberty -2:24.29 17:27.30 19:51.59
Nathan Warrick Olentangy Liberty -37.40 17:27.40 18:04.80
Greg Patrick Central Crossing -1:09.45 17:30.10 18:39.55
Josh Baldridge Hilliard Darby -58.93 17:43.60 18:42.53
Isaiah Lilje John Glenn -2:01.64 17:46.30 19:47.94
Jacob Massa Granville -4:13.77 17:48.10 22:01.87
Brian Pettit Hilliard Darby -2:22.90 17:54.00 20:16.90
Clayton Lunsford Lancaster -1:16.98 17:57.40 19:14.38
Brian Briones Dublin Scioto -21.77 17:57.90 18:19.67
Cole Meyers Barnesville -3:44.21 18:00.70 21:44.91
Brendan Ralston Marysville -1:16.57 18:02.40 19:18.97
Sam Warner Bexley -4:00.14 18:05.10 22:05.24
Jacob Hutchinson Big Walnut -48.39 18:06.50 18:54.89
William Hefner Big Walnut -1:31.28 18:06.50 19:37.78
Bentley Azbell Olentangy -42.11 18:08.80 18:50.91
Kevin Kunesh Olentangy Liberty -1:53.49 18:10.50 20:03.99
Jake Sites Newark -2:00.54 18:14.80 20:15.34
Nolan Vondracek Olentangy Liberty -23.61 18:15.50 18:39.11
Joel David Dublin Scioto -3:00.27 18:17.40 21:17.67
Jeremy McIntire Watkins Memorial -25.90 18:26.60 18:52.50
Emma Bower Olentangy Liberty -15.88 18:28.40 18:44.28
Seth Herrel Teays Valley -1:29.27 18:29.20 19:58.47
Lucas Unver Olentangy Liberty +28.41 19:01.70 18:33.29
Zach Shapiro Bexley -4:22.81 18:35.20 22:58.01
Hamidou Ndiaye Walnut Ridge -2:17.88 18:35.70 20:53.58
Ethan Roberts Fairfield Christian Academy -2:07.15 18:39.60 20:46.75
Grant Jones Olentangy Liberty -2:28.76 18:43.70 21:12.46
Evan Franke Lancaster -1:54.72 18:53.00 20:47.72
James Rogers Olentangy Liberty -2:19.72 18:53.50 21:13.22
Anna Foster Sheridan -2:52.33 18:55.30 21:47.63
John Crum Barnesville -1:41.60 19:02.70 20:44.30
Hart Kaleb Northmor -1:28.26 19:03.80 20:32.06
Nikhil Parail Village Academy -46.38 19:09.30 19:55.68
Tyler Hamilton Teays Valley -45.88 19:15.20 20:01.08
Cam Vayansky Lakewood-Hebron -1:23.92 19:17.70 20:41.62
Caleb Bradford Lancaster -1:44.71 19:19.80 21:04.51
Melina Endsley Olentangy -33.38 19:21.40 19:54.78
Jlord Polintan Olentangy Liberty -6:19.87 19:21.90 25:41.77
Ian Borremeo Hilliard Darby -1:40.82 19:22.60 21:03.42
Chase Nelson Millersport -2:15.46 19:24.40 21:39.86
Sydnee Mangette Liberty Union -1:14.32 19:24.50 20:38.82
Yu-shiang Jeng Athens -1:35.10 19:28.00 21:03.10
Nathan Strakowski Olentangy Liberty -1:46.63 19:28.80 21:15.43
Raymond Frost Athens -3:25.14 19:29.50 22:54.64
Alexander King Olentangy Liberty -2:05.49 19:36.60 21:42.09
Keira Smith Worthington Kilbourne -1:00.80 19:36.80 20:37.60
Madeline Nichols Upper Arlington +1:38.81 21:17.60 19:38.79
Ben Wagner Hilliard Bradley -34.92 19:40.30 20:15.22
Michael Dewberry New Albany -2:01.93 19:41.50 21:43.43
Kevin Remiker New Albany -4:33.96 19:45.00 24:18.96
Jeremy White Hilliard Darby -3:20.66 19:45.70 23:06.36
Isabelle Hoover Fairfield Union -1:47.95 19:45.80 21:33.75
Alyssa Painter New Albany -1:31.18 19:46.80 21:17.98
Mathias Dawit Olentangy Liberty -36.03 19:48.00 20:24.03
Katie Slyh Olentangy -1:08.71 19:51.90 21:00.61
Heilman Manny Northmor -2:23.96 19:55.10 22:19.06
Josh Mcgurer Big Walnut -2:07.03 19:57.10 22:04.13
Luke Eisnaugle Galion +8.47 20:06.40 19:57.93
Coleten Shafer Newark -2:33.74 19:59.70 22:33.44
Issac Stemple Claymont +5.99 20:09.40 20:03.41
Abby Cannon Hilliard Darby +7.52 20:11.70 20:04.18
Bernard Rogers Walnut Ridge -40.07 20:13.00 20:53.07
Jeremy Dech Central Crossing -2:02.36 20:16.40 22:18.76
Dean Sengos Olentangy Liberty -45.22 20:17.60 21:02.82
Claire McCandlish Lancaster -15.10 20:19.30 20:34.40
Cole Schrock Jonathan Alder +9.81 20:31.70 20:21.89
Catherine Ryan New Albany -4:20.53 20:25.60 24:46.13
Sarah Colvin Olentangy Liberty +11.95 20:38.20 20:26.25
Evan Urban Marysville -7:40.16 20:26.40 28:06.56
Evan Brandon Northeastern -1:24.14 20:34.50 21:58.64
Anna Lisa Thomas Worthington +26.60 21:04.70 20:38.10
Morgan Forney Marysville -1:27.06 20:38.10 22:05.16
Matt Zellner Hilliard Bradley +21.50 21:01.40 20:39.90
Mackenzie Morton Newark -1:58.94 20:43.20 22:42.14
Travis Ammons Centerburg -3:19.24 20:47.60 24:06.84
Thomas Dye Hilliard Bradley -45.24 20:47.70 21:32.94
Regan Corea Hilliard Bradley +1:44.05 22:35.60 20:51.55
Drew Mirgon West Muskingum -22.71 21:07.60 21:30.31
Kaleb Bryant Big Walnut -2:15.30 21:08.10 23:23.40
Addy Miller-brown Marysville +29.22 21:39.30 21:10.08
Clay Righman Teays Valley -48.06 21:13.40 22:01.46
Kaleb Disbennett Big Walnut +1:46.48 23:04.40 21:17.92
Dylan Baggett Teays Valley +1:26.37 22:47.80 21:21.43
Brian Biros Hilliard Darby -2:51.63 21:22.70 24:14.33
Simmi Diwanji New Albany -1:14.63 21:23.60 22:38.23
Noah Marshall Hilliard Darby +1:25.85 22:59.50 21:33.65
Jackson Kane Hilliard Darby +15.08 21:54.70 21:39.62
Brooke Bennett Northmor -49.28 21:47.30 22:36.58
Madison Hunter John Glenn +1:21.42 23:12.70 21:51.28
Kayleigh Noecker Teays Valley -4.27 21:51.50 21:55.77
Rachel Ausec Olentangy Liberty +1:26.06 23:20.00 21:53.94
Chanel Boykins Reynoldsburg -1:42.63 21:54.20 23:36.83
Alyssa Holt Centerburg -12.68 21:54.80 22:07.48
Kate Golian New Albany -56.62 21:56.20 22:52.82
Kaeley Clonch Sheridan -5:12.25 22:06.50 27:18.75
Grace Terry Olentangy +2:36.00 24:43.60 22:07.60
Jenna Martz Olentangy Liberty -47.20 22:11.60 22:58.80
Abigail Weis Olentangy Liberty +27.80 22:46.30 22:18.50
Kaela Ponce Westland -1:51.71 22:22.10 24:13.81
Maddy Mead Upper Arlington +1:50.91 24:16.60 22:25.69
Vince Allen Columbus Academy -3:04.23 22:26.80 25:31.03
Jessica Sutton Centerburg -1:27.40 22:30.10 23:57.50
Loren Klein New Albany -1:28.51 22:31.60 24:00.11
Heath Grubb Fairfield Union -1:07.47 22:32.10 23:39.57
Kennedy Smith New Albany +3:56.91 26:30.90 22:33.99
Zach Payne Liberty Union -37.99 22:52.00 23:29.99
Chrystina Watson Sheridan -4:32.46 22:54.70 27:27.16
Hayley Woosley Watkins Memorial -2:11.72 22:56.70 25:08.42
Morgan Hemming Big Walnut +23.94 23:21.70 22:57.76
Madison Slee Heath -1:03.38 22:58.90 24:02.28
Trinity Trimble Westerville South +37.31 23:38.40 23:01.09
Emilee Becker Newark -1:59.86 23:01.80 25:01.66
Alicia McElwee Cardington-Lincoln -3:14.47 23:02.80 26:17.27
Laren Reesman Centennial -36.44 23:08.40 23:44.84
Graham Garee Northridge-Johnstown -1:09.17 23:31.90 24:41.07
Elizabeth Geil Upper Arlington +33.69 24:09.40 23:35.71
Ali Hillis West Muskingum -0.08 23:40.10 23:40.18
Katie Harpham Olentangy Liberty -3:54.62 23:42.80 27:37.42
Parrick Killeen Fairfield Union -1:41.31 23:53.90 25:35.21
Kate Lonergan Hilliard Darby +57.82 25:01.30 24:03.48
Keirsten Marion Fisher Catholic -24.52 24:09.10 24:33.62
Olivia Martin Marysville -16.78 24:10.30 24:27.08
Mikayla Remington Westerville South +2:22.64 26:33.90 24:11.26
Kaitlin Osterman Grove City -2:27.08 24:15.80 26:42.88
Katherine Hammond Olentangy Liberty +2:02.45 26:18.40 24:15.95
Anna Taylor Pickerington Central +1:05.01 25:22.50 24:17.49
Isabele Ramirez-dieckman Westerville South +4:56.25 29:16.70 24:20.45
Sage Brannon Cardington-Lincoln +1:29.03 26:03.00 24:33.97
Lyna Freeman Bloom-Carroll -1:10.49 24:37.40 25:47.89
Avery Hartranft Olentangy Liberty -2:06.47 24:40.40 26:46.87
Kelsey Deistler Olentangy +6.11 24:46.60 24:40.49
Madison Gladman Watkins Memorial -50.32 24:44.10 25:34.42
Kyle Ferguson London -52.38 24:46.00 25:38.38
Russel Staples Liberty Union -3:17.11 24:46.10 28:03.21
Jennie Choberka Newark Catholic +23.98 25:15.60 24:51.62
Kyleigh Luke Marysville -3:44.75 24:56.50 28:41.25
Sydney John Olentangy Liberty -2:03.62 24:59.40 27:03.02
Shelby Grigsby Heath -1:22.58 25:08.10 26:30.68
Samantha Grogg Northmor -3:10.55 25:20.40 28:30.95
Madison Grose Olentangy +3:55.28 29:25.50 25:30.22
Kevin Richer Liberty Union -3:54.53 25:30.40 29:24.93
Kelsey Reasoner Millersport -10.97 25:32.90 25:43.87
Delaney Biggins Olentangy +1:44.92 27:21.10 25:36.18
Kaitlin Digiovine Olentangy -59.65 25:41.70 26:41.35
Abby Leslein Reynoldsburg -3:46.77 25:44.80 29:31.57
Sandra Vogelgesang Walnut Ridge -3:45.77 25:45.80 29:31.57
Abby Gundelfinger Fisher Catholic -1:23.57 25:52.50 27:16.07
Ellie Swan Granville -45.79 25:55.70 26:41.49
Hannah Hittinger Olentangy +2:26.41 28:23.50 25:57.09
Krescens Kok Olentangy -2:24.84 26:10.30 28:35.14
Abigail Montag Thomas Worthington -1:29.82 26:17.30 27:47.12
Kaeli Knight Westerville South +3:01.78 29:49.50 26:47.72
Cheyenne Blair Galion -1:43.61 26:48.90 28:32.51
Danielle Villa Johnstown-Monroe -4:57.02 27:38.00 32:35.02
Brianna Allenstein Olentangy -3:34.39 28:12.80 31:47.19
Charlene Fisher Claymont -42.80 28:14.50 28:57.30
Namrata Kantamneni Olentangy -51.17 28:33.50 29:24.67
Olivia Longhenry Highland Marengo +22.40 29:00.40 28:38.00
Victoria Bonner Bexley +6:27.02 35:07.70 28:40.68
Ashton Cotton Logan Elm +6:24.56 35:17.00 28:52.44
Natalie Detwiler Bloom-Carroll +1:10.28 31:26.20 30:15.92
Rachel Moe Olentangy Liberty -2:32.36 32:23.50 34:55.86